[[{"header":{"parameterUnit":"m.s-1","parameterCategory":1,"la1":30.2991,"la2":30.254,"lo1":-89.0895,"lo2":-89.0444,"dy":0.0017,"dx":0.0017,"nx":28,"ny":28,"refTime":"2024-12-24T03:00:00:Z","depth":0,"parameterNumber":2,"parameterNumberName":"U-component_of_WINDS"},"data":[0,0,0,0,0,0,0,0,0,0,0,0,0,0,0,0,0,0,0,0,0,0,0,0,0,0,0,0,0,0,0,0,0,0,0,0,0,0,0,0,0,0,0,0,0,0,0,0,0,0,0,0,0,0,0,0,0,0,-6.6657,-6.6657,0,-6.6648,-6.6647,-6.6647,-6.6463,-6.6458,-6.6454,-6.6449,-6.644,-6.6444,-6.6448,0,0,0,0,0,0,0,0,0,0,0,0,0,-6.6519,-6.6522,-6.6657,-6.6657,-6.6657,-6.6648,-6.6647,-6.6647,-6.6464,-6.6458,-6.6452,-6.6447,-6.6439,-6.6443,-6.6448,0,0,0,0,0,0,0,0,0,0,0,0,0,-6.6551,-6.6524,-6.6657,-6.6565,-6.6556,-6.6648,-6.6647,-6.6647,-6.6465,-6.6458,-6.6451,-6.6444,-6.6437,-6.6443,-6.6449,-6.6629,0,0,-6.6468,-6.6471,0,0,0,0,0,0,0,0,-6.655,-6.6557,-6.6578,-6.6571,-6.6562,-6.6549,-6.6595,-6.6641,-6.6467,-6.65,-6.6449,-6.6441,-6.6482,-6.6484,-6.6498,-6.6628,-6.6628,-6.6469,-6.6472,-6.6475,-6.6477,0,0,0,0,0,0,0,-6.6548,-6.6556,-6.6653,-6.6579,-6.6569,-6.6524,-6.6521,-6.6603,-6.6531,-6.6496,-6.6483,-6.6484,-6.6476,-6.6492,-6.6496,-6.6628,-6.6468,-6.6474,-6.6478,-6.648,-6.6906,-6.6913,0,0,0,0,0,0,-6.6558,-6.6555,-6.6654,-6.6653,-6.6538,-6.6532,-6.6528,-6.6561,-6.6529,-6.6518,-6.649,-6.6476,-6.6485,-6.6489,-6.6495,-6.6703,-6.6475,-6.6481,-6.6484,-6.6898,-6.6908,-6.6916,0,0,0,0,0,0,-6.6556,-6.6569,-6.6654,-6.6601,-6.6608,-6.6542,-6.658,-6.6564,-6.658,-6.6525,-6.6511,-6.652,-6.648,-6.6486,-6.6597,-6.67,-6.6484,-6.6489,-6.689,-6.6901,-6.6912,-6.7122,0,0,0,0,0,0,-6.6553,-6.6569,-6.6636,-6.6604,-6.6612,-6.6756,-6.6586,-6.6569,-6.6591,-6.6572,-6.6549,-6.6538,-6.6475,-6.6589,-6.6603,-6.6705,-6.6494,-6.688,-6.6895,-6.6908,-6.7105,-6.7139,-6.7168,0,0,0,0,0,-6.6548,-6.6696,-6.664,-6.6653,-6.6694,-6.6763,-6.6767,-6.6691,-6.66,-6.6667,-6.6632,-6.6539,-6.6687,-6.6602,-6.6616,-6.6722,-6.6873,-6.6891,-6.6907,-6.7091,-6.7132,-6.7167,0,0,0,0,0,0,-6.6742,-6.669,-6.6628,-6.6769,-6.6772,-6.6731,-6.6813,-6.6737,-6.6765,-6.6746,-6.6651,-6.6647,-6.6773,-6.6758,-6.6664,-6.6894,-6.6764,-6.6785,-6.6899,-6.6937,-6.6968,-6.6968,-6.6499,0,0,0,0,0,-6.6801,-6.6861,-6.6812,-6.6941,-6.6946,-6.6881,-6.6907,-6.6848,-6.6847,-6.6848,-6.682,-6.6823,-6.687,-6.6903,-6.6943,-6.7103,-6.7095,-6.7183,-6.7214,-6.724,-6.7259,-6.7342,-6.738,-6.6972,-6.6972,-6.6971,0,0,-6.6923,-6.6902,-6.6946,-6.698,-6.6975,-6.7039,-6.6882,-6.6957,-6.7003,-6.6859,-6.6961,-6.6942,-6.6939,-6.7075,-6.7134,-6.7067,-6.737,-6.7262,-6.7283,-6.7287,-6.7363,-6.7402,-6.7437,-6.6983,-6.6981,-6.698,0,0,-6.7179,-6.717,-6.7276,-6.7275,-6.727,-6.7226,-6.7252,-6.7224,-6.7205,-6.7307,-6.72,-6.7255,-6.7338,-6.734,-6.7352,-6.7612,-6.7527,-6.7628,-6.779,-6.7873,-6.7905,-6.7933,-6.8025,-6.8059,-6.7647,-6.7648,-6.7648,0,-6.7332,-6.7424,-6.7341,-6.7422,-6.7441,-6.7314,-6.7421,-6.7424,-6.7433,-6.7449,-6.7374,-6.7476,-6.7465,-6.76,-6.7664,-6.7678,-6.7705,-6.7629,-6.7907,-6.7934,-6.7959,-6.8046,-6.8081,-6.766,-6.7658,-6.7657,-6.7656,0,-6.7612,-6.7678,-6.7765,-6.7777,-6.7805,-6.7899,-6.7831,-6.787,-6.781,-6.7774,-6.7879,-6.7862,-6.7897,-6.7925,-6.7866,-6.8052,-6.8011,-6.7924,-6.779,-6.8012,-6.8092,-6.8124,-6.7677,-6.7673,-6.7669,-6.7666,0,0,-6.7986,-6.7953,-6.7986,-6.799,-6.7976,-6.8026,-6.8116,-6.8149,-6.8185,-6.8196,-6.8268,-6.8343,-6.8262,-6.8276,-6.8217,-6.829,-6.8497,-6.8193,-6.8192,-6.825,-6.87,-6.8765,-6.8805,-6.8442,-6.8448,-6.8452,-6.87,0,-6.8233,-6.8382,-6.8311,-6.847,-6.853,-6.8411,-6.8489,-6.849,-6.846,-6.8506,-6.8472,-6.8526,-6.8416,-6.8424,-6.8491,-6.8458,-6.8586,-6.8439,-6.8508,-6.8511,-6.851,-6.8846,-6.8915,-6.9149,-6.8731,-6.8736,-6.874,0,-6.8539,-6.8564,-6.8728,-6.8705,-6.8727,-6.8798,-6.8824,-6.8871,-6.887,-6.8842,-6.886,-6.8785,-6.8871,-6.8741,-6.8859,-6.8761,-6.8785,-6.8773,-6.8781,-6.8782,-6.8638,-6.8856,-6.9222,-6.9257,-6.8788,-6.8784,-6.8781,0,-6.8795,-6.8869,-6.8977,-6.8985,-6.896,-6.9013,-6.9005,-6.8997,-6.9023,-6.9046,-6.9062,-6.9095,-6.9114,-6.9142,-6.9078,-6.8989,-6.9205,-6.9069,-6.9184,-6.9186,-6.9233,-6.9231,-6.9607,-6.9253,-6.9252,-6.9251,-6.9251,0,-6.9076,-6.9181,-6.9092,-6.9158,-6.9273,-6.9191,-6.9307,-6.9286,-6.9281,-6.9341,-6.9242,-6.9301,-6.9214,-6.9265,-6.9216,-6.9321,-6.933,-6.931,-6.9296,-6.9318,-6.9321,-6.9331,-6.9313,-6.926,-6.9258,-6.9257,-6.9255,0,-6.938,-6.9324,-6.9434,-6.9403,-6.9397,-6.9484,-6.9456,-6.9517,-6.948,-6.9559,-6.9572,-6.9515,-6.957,-6.951,-6.956,-6.9527,-6.9669,-6.9631,-6.967,-6.9658,-6.9776,-6.9766,-7.0171,-7.022,-6.9836,-6.984,-6.9843,0,-6.9562,-6.964,-6.9618,-6.9651,-6.965,-6.9705,-6.9731,-6.9654,-6.9685,-6.9691,-6.9751,-6.9798,-6.983,-6.9924,-6.9887,-6.9926,-6.9887,-7.0027,-6.9892,-6.9912,-6.9888,-6.9883,-6.989,-7.0053,-7.0058,-7.0062,-7.0065,0,-6.9891,-6.986,-6.9901,-6.9934,-6.9968,-6.9989,-7.0004,-7.0037,-6.9957,-6.9998,-7.0053,-7.0079,-7.0131,-7.0178,-7.0206,-7.0198,-7.0119,-7.0108,-7.0136,-7.0159,-7.0178,-7.0168,-6.9743,-7.0098,-7.0095,-7.0092,-7.0091,-7.0089,-7.0138,-7.0202,-7.0197,-7.0246,-7.0249,-7.0266,-7.0321,-7.0292,-7.0337,-7.0373,-7.0325,-7.0394,-7.0392,-7.0421,-7.0423,-7.0476,-7.0416,-7.0458,-7.0468,-7.0479,-7.0496,-7.0172,-7.0481,-7.048,-7.0479,-7.0478,-7.0477,0,-7.046,-7.0452,-7.0498,-7.0522,-7.0561,-7.0485,-7.0497,-7.0535,-7.0596,-7.0601,-7.0636,-7.07,-7.0746,-7.0715,-7.0754,-7.0802,-7.0767,-7.0815,-7.0809,-7.0809,-7.0547,-7.0518,-7.0843,-7.0842,-7.0842,-7.0842,-7.0842,-7.0842,-7.0633,-7.0737,-7.0707,-7.0812,-7.0802,-7.0869,-7.0882,-7.0897,-7.0901,-7.0977,-7.1015,-7.0994,-7.0984,-7.1022,-7.1061,-7.1051,-7.1069,-7.113,-7.1107,-7.0863,-7.0827,-7.0793,-7.0765,-7.1135,-7.1136,-7.1363,-7.1365,-7.1367]},{"header":{"parameterUnit":"m.s-1","parameterCategory":1,"la1":30.2991,"la2":30.254,"lo1":-89.0895,"lo2":-89.0444,"dy":0.0017,"dx":0.0017,"nx":28,"ny":28,"refTime":"2024-12-24T03:00:00:Z","depth":0,"parameterNumber":3,"parameterNumberName":"V-component_of_WINDS"},"data":[0,0,0,0,0,0,0,0,0,0,0,0,0,0,0,0,0,0,0,0,0,0,0,0,0,0,0,0,0,0,0,0,0,0,0,0,0,0,0,0,0,0,0,0,0,0,0,0,0,0,0,0,0,0,0,0,0,0,-1.5922,-1.5922,0,-1.5918,-1.5918,-1.5918,-1.5884,-1.5883,-1.5883,-1.5882,-1.5878,-1.5878,-1.5879,0,0,0,0,0,0,0,0,0,0,0,0,0,-1.5898,-1.5898,-1.5922,-1.5922,-1.5922,-1.5918,-1.5918,-1.5918,-1.5884,-1.5883,-1.5882,-1.5881,-1.5878,-1.5878,-1.5879,0,0,0,0,0,0,0,0,0,0,0,0,0,-1.5903,-1.5899,-1.5922,-1.5904,-1.5903,-1.5918,-1.5918,-1.5918,-1.5885,-1.5883,-1.5882,-1.5881,-1.5877,-1.5878,-1.5879,-1.5911,0,0,-1.5882,-1.5883,0,0,0,0,0,0,0,0,-1.5902,-1.5903,-1.5907,-1.5906,-1.5904,-1.59,-1.5908,-1.5916,-1.5885,-1.5892,-1.5882,-1.588,-1.5886,-1.5887,-1.5889,-1.5911,-1.5911,-1.5883,-1.5883,-1.5884,-1.5884,0,0,0,0,0,0,0,-1.5902,-1.5903,-1.592,-1.5907,-1.5905,-1.5896,-1.5896,-1.5909,-1.5896,-1.5891,-1.5888,-1.5888,-1.5885,-1.5888,-1.5888,-1.5911,-1.5883,-1.5883,-1.5884,-1.5884,-1.5956,-1.5957,0,0,0,0,0,0,-1.5904,-1.5903,-1.5921,-1.592,-1.59,-1.5898,-1.5897,-1.5903,-1.5896,-1.5894,-1.589,-1.5887,-1.5887,-1.5887,-1.5888,-1.5923,-1.5884,-1.5885,-1.5885,-1.5955,-1.5956,-1.5958,0,0,0,0,0,0,-1.5904,-1.5906,-1.5921,-1.5911,-1.5912,-1.59,-1.5906,-1.5903,-1.5906,-1.5895,-1.5892,-1.5895,-1.5886,-1.5887,-1.5905,-1.5923,-1.5885,-1.5886,-1.5953,-1.5955,-1.5957,-1.5995,0,0,0,0,0,0,-1.5903,-1.5906,-1.5919,-1.5912,-1.5913,-1.5939,-1.5907,-1.5904,-1.5908,-1.5904,-1.5899,-1.5897,-1.5885,-1.5904,-1.5906,-1.5923,-1.5887,-1.5952,-1.5954,-1.5957,-1.5992,-1.5998,-1.6003,0,0,0,0,0,-1.5903,-1.593,-1.592,-1.5922,-1.5928,-1.594,-1.594,-1.5926,-1.5909,-1.5921,-1.5914,-1.5897,-1.592,-1.5906,-1.5908,-1.5926,-1.5951,-1.5954,-1.5956,-1.599,-1.5997,-1.6003,0,0,0,0,0,0,-1.594,-1.5929,-1.5917,-1.5943,-1.5942,-1.5934,-1.5949,-1.5934,-1.5938,-1.5935,-1.5917,-1.5916,-1.5936,-1.5933,-1.5917,-1.5955,-1.5932,-1.5936,-1.5957,-1.5963,-1.5969,-1.5969,-1.5888,0,0,0,0,0,-1.5951,-1.5961,-1.5951,-1.5975,-1.5975,-1.5962,-1.5966,-1.5955,-1.5954,-1.5953,-1.5947,-1.5946,-1.5953,-1.5958,-1.5964,-1.5991,-1.5989,-1.6004,-1.601,-1.6014,-1.6018,-1.603,-1.6036,-1.5967,-1.5967,-1.5967,0,0,-1.5975,-1.597,-1.5977,-1.5982,-1.598,-1.5991,-1.5962,-1.5975,-1.5982,-1.5955,-1.5972,-1.5967,-1.5965,-1.5987,-1.5997,-1.5985,-1.6036,-1.6018,-1.6022,-1.6022,-1.6033,-1.604,-1.6046,-1.5969,-1.5969,-1.5969,0,0,-1.6022,-1.602,-1.6039,-1.6037,-1.6034,-1.6025,-1.603,-1.6023,-1.6018,-1.6035,-1.6014,-1.6022,-1.6035,-1.6034,-1.6035,-1.6079,-1.6063,-1.6082,-1.611,-1.6122,-1.6128,-1.6132,-1.6147,-1.6153,-1.6085,-1.6085,-1.6085,0,-1.6052,-1.6067,-1.605,-1.6064,-1.6066,-1.6041,-1.6059,-1.6058,-1.6058,-1.606,-1.6046,-1.606,-1.6057,-1.6078,-1.6089,-1.6091,-1.6094,-1.6082,-1.6128,-1.6133,-1.6137,-1.6151,-1.6156,-1.6087,-1.6087,-1.6087,-1.6087,0,-1.6102,-1.6113,-1.6128,-1.6127,-1.6131,-1.6147,-1.6132,-1.6137,-1.6125,-1.6117,-1.6133,-1.6128,-1.6132,-1.6136,-1.6125,-1.6155,-1.6147,-1.6132,-1.6108,-1.6146,-1.6158,-1.6164,-1.609,-1.609,-1.6089,-1.6088,0,0,-1.6174,-1.6163,-1.6169,-1.6167,-1.6161,-1.6169,-1.6183,-1.6186,-1.619,-1.619,-1.6201,-1.6211,-1.6196,-1.6197,-1.6185,-1.6196,-1.6229,-1.6178,-1.6178,-1.6187,-1.626,-1.6272,-1.6278,-1.6219,-1.622,-1.6221,-1.626,0,-1.6219,-1.6242,-1.6227,-1.6252,-1.6261,-1.6237,-1.6249,-1.6246,-1.6238,-1.6244,-1.6235,-1.6242,-1.6222,-1.6222,-1.6232,-1.6223,-1.6244,-1.622,-1.6228,-1.6228,-1.6228,-1.6285,-1.6298,-1.6335,-1.6265,-1.6266,-1.6267,0,-1.6275,-1.6276,-1.6302,-1.6293,-1.6296,-1.6307,-1.6307,-1.6313,-1.6309,-1.6303,-1.6303,-1.6288,-1.6299,-1.6276,-1.6292,-1.6276,-1.6278,-1.6274,-1.6275,-1.6275,-1.6249,-1.6285,-1.6347,-1.6353,-1.6274,-1.6274,-1.6273,0,-1.6323,-1.6332,-1.6348,-1.6347,-1.6337,-1.6345,-1.6341,-1.6336,-1.6338,-1.6338,-1.6339,-1.6341,-1.6342,-1.6343,-1.6328,-1.6313,-1.6345,-1.6321,-1.6339,-1.634,-1.6347,-1.6347,-1.6409,-1.635,-1.635,-1.6349,-1.6349,0,-1.6375,-1.6391,-1.6369,-1.6379,-1.6396,-1.6378,-1.6395,-1.6389,-1.6384,-1.6391,-1.6371,-1.6378,-1.6358,-1.6364,-1.6352,-1.6366,-1.6367,-1.6361,-1.6357,-1.6362,-1.6363,-1.6363,-1.636,-1.6351,-1.6351,-1.635,-1.635,0,-1.6432,-1.6418,-1.6434,-1.6422,-1.6419,-1.6432,-1.6422,-1.643,-1.642,-1.643,-1.6431,-1.6416,-1.6421,-1.6406,-1.6409,-1.6401,-1.642,-1.6413,-1.6422,-1.6419,-1.6437,-1.6436,-1.6502,-1.6509,-1.6446,-1.6446,-1.6447,0,-1.6465,-1.6477,-1.6466,-1.647,-1.6466,-1.6472,-1.6474,-1.6456,-1.6458,-1.6453,-1.6462,-1.6465,-1.6466,-1.6474,-1.6463,-1.6465,-1.6457,-1.648,-1.6457,-1.6461,-1.6456,-1.6455,-1.6455,-1.6484,-1.6485,-1.6486,-1.6486,0,-1.6525,-1.6517,-1.6521,-1.6521,-1.6523,-1.6523,-1.6521,-1.6524,-1.6505,-1.6508,-1.6513,-1.6513,-1.6515,-1.6518,-1.6517,-1.6512,-1.6496,-1.6493,-1.6497,-1.6502,-1.6506,-1.6503,-1.6434,-1.6492,-1.6491,-1.6491,-1.6491,-1.6491,-1.6571,-1.658,-1.6573,-1.6576,-1.6573,-1.6571,-1.6577,-1.6568,-1.6571,-1.6571,-1.656,-1.6566,-1.6559,-1.6556,-1.6552,-1.6556,-1.6546,-1.6552,-1.6553,-1.6555,-1.6557,-1.6506,-1.6556,-1.6556,-1.6556,-1.6556,-1.6556,0,-1.6629,-1.6623,-1.6626,-1.6623,-1.6626,-1.661,-1.6606,-1.6609,-1.6615,-1.661,-1.6611,-1.6615,-1.6617,-1.6606,-1.6606,-1.6611,-1.6604,-1.6612,-1.6611,-1.661,-1.6568,-1.6564,-1.6618,-1.6618,-1.6618,-1.6618,-1.6618,-1.6618,-1.6659,-1.6673,-1.6663,-1.6674,-1.6668,-1.6673,-1.6672,-1.667,-1.6666,-1.6671,-1.6672,-1.6665,-1.6657,-1.6656,-1.6657,-1.6653,-1.6654,-1.6664,-1.6658,-1.6619,-1.6613,-1.6607,-1.6603,-1.6665,-1.6665,-1.67,-1.67,-1.67]}]]